Tracking 34717 objects as of 14-Jul-2026
HD Live streaming from Space Station
objects crossing your sky now

YAOGAN-43 03C

Track YAOGAN-43 03C now!
10-day predictions
YAOGAN-43 03C is classified as:


NORAD ID: 61619
Int'l Code: 2024-190C
Perigee: 499.3 km
Apogee: 507.9 km
Inclination: 35.0 °
Period: 94.5 minutes
Semi major axis: 6874 km
RCS: Unknown
Launch date: October 23, 2024
Source: People's Republic of China (PRC)
Launch site: Xichang Space Center, China (XSC)
Your satellite tracking list
Your tracking list is empty




NASA's NSSDC Master Catalog

Two Line Element Set (TLE):
1 61619U 24190C   26194.86575719  .00001921  00000-0  80930-4 0  9996
2 61619  34.9970  30.2849 0006247 233.4879 126.5261 15.23121786 95898
Source of the keplerian elements: AFSPC